Location: Holcomb Observatory and Planetarium
(39.8415°N, 86.1714°W)
Time: 13:29:24
(UTC-04:00)

ISS - Visible Passes

Search period start: 26 May 2018 00:00
Search period end: 05 June 2018 00:00
Orbit: 402 x 407 km, 51.6° (Epoch: 26 May)

Date Brightness Start Highest point End Pass type
(mag) Time Alt. Az. Time Alt. Az. Time Alt. Az.
26 May -0.7 01:26:01 10° NNW 01:27:42 15° N 01:27:42 15° N visible
26 May -0.5 22:56:41 10° NNW 22:57:58 12° N 22:59:15 10° NNE visible
27 May -0.7 00:34:04 10° NNW 00:35:35 13° NNE 00:36:54 11° NE visible
27 May -0.7 22:03:35 10° NW 22:05:25 14° NNW 22:07:16 10° NNE visible
27 May -0.6 23:42:02 10° NNW 23:43:01 11° N 23:44:01 10° NNE visible
28 May -0.8 01:17:40 10° NNW 01:18:48 17° NNW 01:18:48 17° NNW visible
28 May -0.5 22:49:40 10° NNW 22:50:26 11° N 22:51:11 10° NNE visible
29 May -1.2 00:25:41 10° NNW 00:27:58 17° NNE 00:28:08 17° NNE visible
29 May -0.6 21:56:44 10° NNW 21:57:49 11° N 21:58:55 10° NNE visible
29 May -0.9 23:33:42 10° NNW 23:35:26 13° NNE 23:37:10 10° NE visible
30 May -0.9 01:09:22 10° NW 01:10:08 16° NW 01:10:08 16° NW visible
30 May -0.8 22:41:40 10° NNW 22:42:50 11° N 22:44:00 10° NNE visible
31 May -1.7 00:17:17 10° NW 00:19:32 26° N 00:19:32 26° N visible
31 May -0.7 21:49:25 10° NNW 21:50:12 11° N 21:50:59 10° NNE visible
31 May -1.5 23:25:14 10° NNW 23:27:42 19° NNE 23:28:56 16° NE visible
01 Jun -0.8 01:01:13 10° NW 01:01:34 13° WNW 01:01:34 13° WNW visible
01 Jun -1.1 22:33:13 10° NNW 22:35:09 15° NNE 22:37:04 10° NE visible
02 Jun -2.1 00:08:57 10° NW 00:11:01 34° NNW 00:11:01 34° NNW visible
02 Jun -1.0 21:41:10 10° NNW 21:42:32 12° N 21:43:54 10° NE visible
02 Jun -2.5 23:16:47 10° NW 23:19:47 32° NNE 23:20:28 29° NE visible
03 Jun -1.7 22:24:41 10° NNW 22:27:18 22° NNE 22:29:55 10° ENE visible
04 Jun -2.1 00:00:46 10° WNW 00:02:36 29° WNW 00:02:36 29° WNW visible
04 Jun -3.8 23:08:24 10° NW 23:11:41 72° NE 23:12:07 60° E visible
